#timestamp,LO_Frequency,Hit,StdDev 
1659481215.1,286046995.9,N
1659481235.8,286046993.5,N
1659481255.7,286046995.9,N
1659481275.5,286046996.0,N
1659481295.4,286046993.4,N
1659481315.2,286046994.7,N
1659481335.0,286046991.7,N
1659481335.9,286046991.7,N
1659481355.8,286046992.3,N
1659481375.6,286046996.4,N
1659481395.4,286046995.4,N
1659481415.3,286046995.5,N
1659481435.1,286046995.5,N
1659481455.9,286046993.4,N
1659481475.7,286046997.9,N
1659481495.5,286046998.0,N
1659481515.4,286046997.2,N
1659481535.2,286046995.0,N
1659481555.0,286046995.6,N
1659481555.9,286046995.6,N
1659481575.8,286046995.0,N
1659481595.6,286047000.9,N
1659481615.5,286047002.1,N
1659481635.3,286046996.8,N
1659481655.1,286047000.5,N
1659481675.9,286047002.0,N
1659481695.7,286046997.4,N
1659481715.5,286046995.3,N
1659481735.4,286046998.5,N
1659481755.2,286047002.5,N
1659481775.1,286046999.9,N
1659481776.0,286046999.9,N
1659481795.8,286046998.7,N
1659481815.6,286047000.7,N
1659481835.5,286046998.4,N
1659481855.3,286047001.2,N
1659481875.1,286046999.5,N
1659481895.9,286046997.9,N
1659481915.7,286046994.9,N
1659481935.6,286047000.8,N
1659481955.4,286047001.6,N
1659481975.2,286047000.5,N
1659481995.1,286046994.9,N
1659481996.0,286046994.9,N
1659482015.8,286046996.4,N
1659482035.6,286046996.0,N
1659482055.5,286046993.8,N
1659482075.3,286046993.4,N
1659482095.2,286046996.1,N
1659482115.9,286046994.9,N
1659482135.7,286046998.0,N
1659482155.6,286046995.0,N
1659482175.4,286046996.6,N
1659482195.2,286046999.2,N
1659482215.1,286046999.2,N
1659482216.0,286046999.2,N
1659482235.8,286047002.6,N
1659482255.7,286047001.8,N
1659482275.5,286047002.9,N
1659482295.3,286047002.4,N
1659482315.2,286047000.8,N
1659482335.0,286046996.9,N
1659482335.9,286046996.9,N
1659482355.7,286046995.5,N
1659482375.6,286046995.0,N
1659482395.4,286046996.5,N
1659482415.3,286047000.6,N
1659482435.1,286046996.5,N
1659482436.0,286046996.5,N
1659482455.8,286046995.2,N
1659482475.7,286046996.3,N
1659482495.5,286046996.4,N
1659482515.4,286046997.6,N
1659482535.2,286046997.6,N
1659482555.0,286046999.6,N
1659482555.9,286046999.6,N
1659482575.8,286046995.8,N
1659482595.6,286046993.7,N
1659482615.4,286046995.7,N
1659482635.3,286046995.6,N
1659482655.1,286046995.6,N
1659482675.9,286046995.8,N
1659482695.7,286046994.2,N
1659482715.5,286046993.5,N
1659482735.4,286046995.8,N
1659482755.2,286046996.6,N
1659482775.0,286046995.8,N
1659482775.9,286046995.8,N
1659482795.8,286046995.9,N
1659482815.6,286046992.2,Y
1659482835.5,286047001.0,P
1659482855.3,286047001.5,N
1659482875.1,286046998.7,N
1659482895.9,286046996.5,N
1659482915.7,286046997.8,N
1659482935.6,286046997.7,N
1659482955.4,286046996.6,N
1659482975.2,286046998.3,N
1659482995.1,286046998.1,N
1659482996.0,286046998.1,N
1659483015.8,286046998.2,N
1659483035.6,286046999.2,N
1659483055.5,286046996.8,N
1659483075.3,286046995.5,Y
1659483095.2,286046998.7,P
1659483115.9,286046996.8,P
1659483135.7,286047000.2,N
1659483155.6,286047000.5,N
1659483175.4,286047000.7,N
1659483195.2,286046995.1,Y
1659483215.1,286046993.9,P
1659483216.0,286046993.9,N
1659483235.8,286046994.2,N
1659483255.7,286046994.0,N
1659483275.5,286046997.9,N
1659483295.3,286046997.3,N
1659483315.2,286046996.6,N
1659483335.0,286046998.4,N
1659483335.9,286046998.4,N
1659483355.7,286047001.9,N
1659483375.6,286047002.8,N
1659483395.4,286047001.9,N
1659483415.3,286046999.7,N
1659483435.1,286047000.5,N
1659483436.0,286047000.5,N
1659483455.8,286047002.3,N
1659483475.7,286047000.6,N
1659483495.5,286046999.0,N
1659483515.3,286047000.7,N
1659483535.2,286046999.2,N
1659483555.0,286047000.6,N
1659483555.9,286047000.6,N
1659483605.8,286046998.1,E
1659483615.7,286047002.5,N
1659483635.5,286047002.5,P
1659483655.4,286046999.9,P
1659483675.2,286047004.0,Y
1659483695.1,286046999.6,P
1659483696.0,286046999.6,N
1659483715.8,286046999.2,N
1659483735.6,286046997.9,N
1659483755.5,286046995.0,Y
1659483775.3,286046993.5,P
1659483795.1,286046999.6,N
1659483815.9,286047002.7,N
1659483835.7,286047001.4,N
1659483855.6,286047005.5,N
1659483875.4,286047001.1,N
1659483895.2,286047001.7,N
1659483915.1,286047003.1,N
1659483916.0,286047003.1,N
1659483935.8,286047003.9,N
1659483955.6,286047001.5,N
1659483975.5,286047002.1,N
1659483995.3,286047004.4,N
1659484015.2,286047003.6,N
1659484035.9,286047007.1,N
1659484055.7,286047010.6,Y
1659484075.6,286047006.8,P
1659484095.4,286047003.7,N
1659484115.2,286047005.9,P
1659484135.1,286047003.7,N
1659484136.0,286047003.7,N
1659484155.8,286047001.4,N
1659484175.7,286047009.1,Y
1659484195.5,286047003.4,P
1659484215.3,286047002.2,P
1659484235.2,286046997.4,P
1659484255.0,286046997.5,N
1659484255.9,286046997.5,N
1659484275.7,286046993.7,N
1659484295.6,286046993.5,N
1659484315.4,286046996.9,N
1659484335.3,286046998.2,N
1659484355.1,286047000.1,N
1659484356.0,286047000.1,N
1659484375.8,286047000.6,N
1659484395.7,286046998.0,N
1659484415.5,286046995.4,N
1659484435.3,286046996.3,N
1659484455.2,286046996.0,N
1659484475.0,286046994.1,N
1659484475.9,286046994.1,N
1659484495.8,286046994.4,N
1659484515.6,286046995.9,N
1659484535.4,286046996.5,N
1659484555.3,286046999.1,N
1659484575.1,286046998.4,N
1659484595.8,286046998.6,N
1659484615.7,286047001.0,N
1659484635.5,286047000.3,N
1659484655.4,286046999.6,N
1659484675.2,286046999.0,N
1659484695.0,286046997.6,N
1659484695.9,286046997.6,N
1659484715.8,286046999.6,N
1659484735.6,286047002.5,N
1659484755.5,286046998.5,N
1659484775.3,286046998.3,N
1659484795.1,286046996.6,N
